QPF
0.00 0.00 0.00 0.01 0.01 0.01 0.01 0.01 0.01 0.01 0.01 0.01 0.00 0.00 0.00 0.00 0.00 0.00 0.00 0.00 0.00 0.00 0.00 0.00 0.00 0.01 0.00 0.00 0.01 0.01 0.01 0.01 0.01 0.00 0.00 0.00 0.00 0.00 0.00 0.00 0.00 0.00 0.00 0.00
0.00 0.00 0.00 0.01 0.01 0.01 0.02 0.02 0.01 0.00 0.00 0.00 0.00 0.00 0.00 0.00 0.00 0.00 0.00 0.00 0.00 0.00 0.00 0.00 0.00 0.00 0.00 0.00 0.00 0.00 0.01 0.01 0.01 0.00 0.00 0.00 0.00 0.00 0.00 0.00 0.00 0.00 0.00 0.00
0.00 0.00 0.00 0.01 0.01 0.02 0.02 0.02 0.01 0.01 0.01 0.00 0.00 0.00 0.00 0.00 0.00 0.00 0.00 0.00 0.01 0.01 0.01 0.01 0.01 0.01 0.00 0.00 0.00 0.00 0.00 0.01 0.01 0.00 0.00 0.00 0.00 0.00 0.00 0.00 0.00 0.00 0.00 0.00
0.00 0.00 0.01 0.01 0.01 0.00 0.00 0.00 0.00 0.00 0.00 0.00 0.00 0.00 0.00 0.00 0.00 0.00 0.00 0.00 0.01 0.01 0.01 0.01 0.01 0.01 0.01 0.01 0.01 0.01 0.01 0.00 0.00 0.01 0.01 0.00 0.00 0.00 0.00 0.00 0.00 0.00 0.00 0.00
0.01 0.01 0.01 0.01 0.01 0.00 0.00 0.00 0.00 0.00 0.00 0.00 0.00 0.00 0.00 0.00 0.00 0.00 0.00 0.00 0.00 0.00 0.01 0.01 0.01 0.01 0.01 0.01 0.01 0.01 0.00 0.00 0.00 0.01 0.01 0.01 0.01 0.00 0.00 0.00 0.00 0.00 0.00 0.00
0.01 0.01 0.01 0.01 0.00 0.00 0.00 0.00 0.00 0.00 0.00 0.00 0.00 0.00 0.00 0.00 0.00 0.00 0.00 0.00 0.01 0.01 0.01 0.01 0.01 0.01 0.01 0.01 0.01 0.01 0.01 0.00 0.00 0.00 0.01 0.01 0.01 0.00 0.00 0.00 0.00 0.00 0.00 0.00
0.01 0.01 0.01 0.00 0.00 0.00 0.01 0.01 0.00 0.00 0.00 0.00 0.00 0.00 0.00 0.00 0.00 0.00 0.00 0.00 0.01 0.01 0.01 0.01 0.01 0.01 0.01 0.01 0.01 0.01 0.01 0.00 0.00 0.00 0.01 0.01 0.01 0.01 0.00 0.00 0.00 0.00 0.00 0.00
0.01 0.01 0.01 0.00 0.00 0.01 0.01 0.00 0.00 0.00 0.00 0.00 0.00 0.00 0.00 0.00 0.00 0.00 0.00 0.00 0.00 0.00 0.00 0.01 0.01 0.01 0.00 0.00 0.00 0.00 0.00 0.00 0.00 0.00 0.00 0.01 0.01 0.00 0.00 0.00 0.00 0.00 0.00 0.00
0.01 0.01 0.00 0.00 0.00 0.00 0.00 0.00 0.00 0.00 0.00 0.00 0.00 0.00 0.00 0.00 0.00 0.00 0.00 0.00 0.00 0.00 0.00 0.00 0.00 0.00 0.00 0.00 0.00 0.00 0.00 0.00 0.00 0.00 0.00 0.00 0.00 0.00 0.00 0.00 0.00 0.00 0.00 0.00
0.00 0.00 0.00 0.00 0.00 0.00 0.00 0.00 0.00 0.00 0.00 0.00 0.00 0.00 0.00 0.00 0.00 0.00 0.00 0.00 0.00 0.00 0.00 0.00 0.00 0.00 0.00 0.00 0.00 0.01 0.01 0.00 0.00 0.00 0.00 0.00 0.00 0.00 0.00 0.00 0.00 0.00 0.00 0.00
0.00 0.00 0.00 0.00 0.00 0.00 0.00 0.00 0.00 0.01 0.01 0.01 0.01 0.00 0.00 0.00 0.00 0.00 0.00 0.00 0.00 0.00 0.00 0.00 0.00 0.00 0.00 0.00 0.00 0.01 0.01 0.01 0.01 0.01 0.01 0.01 0.01 0.01 0.01 0.01 0.01 0.01 0.00 0.00
0.00 0.00 0.00 0.00 0.00 0.00 0.00 0.00 0.00 0.00 0.00 0.01 0.01 0.00 0.00 0.01 0.01 0.00 0.00 0.00 0.00 0.00 0.00 0.00 0.00 0.00 0.00 0.00 0.00 0.00 0.01 0.01 0.01 0.01 0.01 0.01 0.01 0.01 0.01 0.01 0.01 0.00 0.00 0.01
0.00 0.00 0.00 0.00 0.00 0.00 0.00 0.00 0.00 0.00 0.00 0.00 0.00 0.00 0.01 0.01 0.01 0.00 0.00 0.00 0.00 0.00 0.00 0.00 0.00 0.00 0.00 0.00 0.00 0.00 0.01 0.01 0.01 0.01 0.01 0.01 0.01 0.01 0.01 0.01 0.01 0.01 0.01 0.01
0.00 0.00 0.00 0.00 0.00 0.00 0.00 0.00 0.00 0.00 0.00 0.00 0.00 0.00 0.01 0.00 0.00 0.00 0.00 0.00 0.00 0.00 0.00 0.00 0.00 0.00 0.01 0.01 0.01 0.01 0.01 0.01 0.01 0.01 0.01 0.01 0.01 0.01 0.01 0.01 0.01 0.01 0.01 0.01
0.00 0.00 0.00 0.00 0.00 0.00 0.00 0.00 0.00 0.00 0.00 0.00 0.00 0.00 0.01 0.01 0.00 0.00 0.00 0.00 0.00 0.00 0.00 0.00 0.00 0.00 0.00 0.01 0.01 0.01 0.01 0.01 0.01 0.02 0.01 0.01 0.01 0.01 0.01 0.01 0.01 0.01 0.01 0.01
0.00 0.00 0.00 0.00 0.00 0.00 0.00 0.00 0.00 0.00 0.00 0.00 0.00 0.00 0.01 0.01 0.01 0.00 0.00 0.00 0.00 0.00 0.00 0.00 0.00 0.00 0.00 0.01 0.01 0.01 0.01 0.01 0.01 0.01 0.02 0.02 0.01 0.01 0.01 0.00 0.00 0.00 0.01 0.01
0.01 0.00 0.00 0.00 0.00 0.00 0.00 0.00 0.00 0.00 0.00 0.00 0.00 0.00 0.00 0.01 0.01 0.01 0.00 0.00 0.00 0.00 0.00 0.00 0.00 0.00 0.00 0.00 0.01 0.01 0.01 0.01 0.01 0.01 0.00 0.01 0.01 0.01 0.01 0.01 0.01 0.01 0.01 0.01
0.00 0.00 0.00 0.00 0.00 0.00 0.00 0.00 0.00 0.00 0.00 0.00 0.00 0.00 0.00 0.01 0.01 0.01 0.01 0.00 0.00 0.00 0.00 0.00 0.00 0.00 0.00 0.00 0.00 0.00 0.00 0.00 0.00 0.00 0.00 0.00 0.01 0.01 0.01 0.01 0.01 0.02 0.01 0.01
0.00 0.00 0.00 0.00 0.00 0.00 0.00 0.00 0.00 0.00 0.00 0.00 0.00 0.00 0.00 0.01 0.01 0.01 0.01 0.02 0.01 0.00 0.00 0.00 0.00 0.00 0.00 0.00 0.00 0.00 0.00 0.00 0.00 0.00 0.00 0.00 0.01 0.00 0.00 0.01 0.01 0.00 0.01 0.00
0.00 0.00 0.00 0.00 0.00 0.00 0.00 0.00 0.00 0.00 0.00 0.00 0.00 0.00 0.00 0.01 0.02 0.02 0.02 0.02 0.02 0.01 0.00 0.00 0.00 0.00 0.00 0.00 0.00 0.00 0.00 0.00 0.00 0.00 0.00 0.00 0.00 0.00 0.00 0.00 0.00 0.00 0.00 0.00
0.00 0.00 0.00 0.00 0.00 0.00 0.00 0.00 0.00 0.00 0.00 0.00 0.00 0.00 0.00 0.01 0.02 0.03 0.02 0.02 0.02 0.01 0.01 0.01 0.01 0.01 0.00 0.00 0.00 0.00 0.00 0.00 0.00 0.00 0.00 0.00 0.00 0.00 0.00 0.00 0.00 0.00 0.00 0.00
0.00 0.00 0.00 0.00 0.00 0.00 0.00 0.00 0.00 0.00 0.00 0.00 0.00 0.00 0.00 0.00 0.01 0.01 0.02 0.03 0.03 0.03 0.02 0.01 0.01 0.01 0.00 0.00 0.00 0.00 0.00 0.00 0.00 0.00 0.00 0.00 0.00 0.00 0.00 0.00 0.00 0.00 0.00 0.00
0.00 0.00 0.00 0.00 0.00 0.00 0.00 0.00 0.00 0.00 0.00 0.00 0.00 0.00 0.00 0.00 0.00 0.01 0.01 0.01 0.02 0.03 0.03 0.02 0.02 0.02 0.01 0.00 0.00 0.00 0.00 0.00 0.00 0.00 0.00 0.01 0.01 0.01 0.00 0.00 0.00 0.00 0.00 0.00
0.00 0.00 0.00 0.00 0.00 0.00 0.00 0.00 0.00 0.00 0.00 0.00 0.00 0.00 0.00 0.00 0.00 0.01 0.01 0.01 0.01 0.01 0.01 0.01 0.01 0.01 0.01 0.01 0.00 0.00 0.00 0.00 0.01 0.01 0.01 0.01 0.01 0.01 0.00 0.00 0.00 0.01 0.01 0.01
0.00 0.00 0.00 0.00 0.00 0.00 0.00 0.00 0.00 0.00 0.00 0.00 0.00 0.00 0.00 0.00 0.01 0.01 0.01 0.01 0.00 0.00 0.00 0.00 0.00 0.00 0.00 0.00 0.00 0.00 0.00 0.00 0.00 0.01 0.01 0.01 0.01 0.01 0.01 0.00 0.00 0.01 0.01 0.01
0.00 0.00 0.00 0.00 0.00 0.00 0.00 0.00 0.00 0.00 0.00 0.00 0.00 0.00 0.00 0.00 0.00 0.00 0.00 0.00 0.00 0.00 0.00 0.00 0.00 0.00 0.00 0.00 0.00 0.00 0.00 0.00 0.00 0.00 0.00 0.00 0.00 0.00 0.00 0.00 0.00 0.00 0.00 0.01
0.00 0.00 0.00 0.00 0.00 0.00 0.00 0.00 0.00 0.00 0.00 0.00 0.00 0.00 0.00 0.00 0.00 0.00 0.00 0.00 0.00 0.00 0.00 0.00 0.00 0.00 0.00 0.00 0.00 0.00 0.00 0.00 0.00 0.00 0.00 0.00 0.00 0.00 0.00 0.00 0.00 0.01 0.01 0.01
MSLP
1016.52 1016.66 1016.78 1016.85 1016.86 1016.79 1016.62 1016.31 1015.85 1015.24 1014.50 1013.65 1012.75 1011.87 1011.06 1010.40 1009.94 1009.69 1009.68 1009.90 1010.31 1010.88 1011.55 1012.29 1013.05 1013.81 1014.54 1015.22 1015.86 1016.45 1016.99 1017.50 1017.97 1018.40 1018.82 1019.21 1019.59 1019.97 1020.35 1020.72 1021.09 1021.45 1021.79 1022.11
1016.32 1016.36 1016.33 1016.23 1016.05 1015.81 1015.48 1015.06 1014.54 1013.93 1013.24 1012.50 1011.73 1011.00 1010.33 1009.79 1009.40 1009.19 1009.18 1009.37 1009.74 1010.25 1010.89 1011.60 1012.35 1013.12 1013.88 1014.61 1015.30 1015.94 1016.54 1017.08 1017.59 1018.06 1018.50 1018.92 1019.34 1019.74 1020.15 1020.55 1020.93 1021.30 1021.64 1021.95
1016.23 1016.16 1015.98 1015.70 1015.34 1014.90 1014.41 1013.86 1013.27 1012.65 1011.99 1011.34 1010.69 1010.08 1009.55 1009.12 1008.81 1008.65 1008.66 1008.83 1009.16 1009.63 1010.22 1010.89 1011.63 1012.40 1013.18 1013.94 1014.67 1015.36 1015.99 1016.58 1017.12 1017.62 1018.09 1018.54 1018.97 1019.40 1019.83 1020.25 1020.64 1021.02 1021.35 1021.64
1016.21 1016.04 1015.72 1015.29 1014.75 1014.15 1013.51 1012.84 1012.18 1011.53 1010.90 1010.31 1009.76 1009.26 1008.84 1008.50 1008.27 1008.16 1008.17 1008.33 1008.62 1009.04 1009.58 1010.22 1010.93 1011.69 1012.47 1013.25 1014.00 1014.72 1015.39 1016.00 1016.57 1017.09 1017.58 1018.04 1018.50 1018.95 1019.38 1019.81 1020.21 1020.59 1020.92 1021.20
1016.14 1015.89 1015.48 1014.93 1014.27 1013.55 1012.80 1012.06 1011.35 1010.68 1010.07 1009.53 1009.05 1008.64 1008.30 1008.03 1007.85 1007.77 1007.78 1007.91 1008.17 1008.54 1009.03 1009.61 1010.28 1011.02 1011.79 1012.57 1013.33 1014.06 1014.74 1015.38 1015.96 1016.50 1017.00 1017.48 1017.94 1018.39 1018.83 1019.26 1019.67 1020.04 1020.37 1020.66
1015.92 1015.63 1015.16 1014.56 1013.85 1013.08 1012.29 1011.52 1010.79 1010.13 1009.55 1009.05 1008.62 1008.27 1007.99 1007.76 1007.61 1007.53 1007.54 1007.64 1007.84 1008.15 1008.58 1009.11 1009.73 1010.42 1011.16 1011.93 1012.69 1013.42 1014.11 1014.75 1015.34 1015.88 1016.38 1016.86 1017.32 1017.77 1018.21 1018.64 1019.05 1019.43 1019.77 1020.06
1015.46 1015.16 1014.71 1014.12 1013.43 1012.68 1011.92 1011.18 1010.49 1009.87 1009.33 1008.87 1008.48 1008.17 1007.91 1007.71 1007.56 1007.47 1007.45 1007.51 1007.66 1007.91 1008.27 1008.74 1009.30 1009.94 1010.64 1011.37 1012.11 1012.83 1013.51 1014.15 1014.74 1015.27 1015.77 1016.24 1016.69 1017.13 1017.57 1017.99 1018.40 1018.79 1019.15 1019.45
1014.75 1014.49 1014.09 1013.58 1012.99 1012.33 1011.66 1011.01 1010.39 1009.84 1009.35 1008.94 1008.59 1008.30 1008.05 1007.85 1007.69 1007.58 1007.52 1007.53 1007.63 1007.82 1008.11 1008.51 1009.01 1009.60 1010.25 1010.94 1011.64 1012.33 1013.00 1013.62 1014.19 1014.72 1015.20 1015.66 1016.09 1016.52 1016.95 1017.37 1017.78 1018.17 1018.54 1018.87
1013.85 1013.66 1013.37 1012.98 1012.53 1012.02 1011.49 1010.96 1010.45 1009.98 1009.56 1009.19 1008.87 1008.59 1008.35 1008.14 1007.96 1007.83 1007.74 1007.71 1007.75 1007.89 1008.12 1008.45 1008.89 1009.41 1010.00 1010.63 1011.29 1011.95 1012.58 1013.18 1013.73 1014.24 1014.70 1015.14 1015.56 1015.97 1016.38 1016.78 1017.19 1017.59 1017.97 1018.31
1012.89 1012.79 1012.62 1012.39 1012.10 1011.75 1011.38 1010.99 1010.59 1010.21 1009.86 1009.53 1009.24 1008.97 1008.73 1008.52 1008.33 1008.17 1008.06 1008.00 1008.01 1008.10 1008.28 1008.55 1008.92 1009.37 1009.90 1010.47 1011.08 1011.68 1012.28 1012.84 1013.36 1013.84 1014.29 1014.70 1015.10 1015.49 1015.88 1016.27 1016.66 1017.05 1017.44 1017.79
1012.03 1012.02 1011.98 1011.89 1011.75 1011.56 1011.33 1011.07 1010.78 1010.48 1010.18 1009.89 1009.62 1009.36 1009.13 1008.92 1008.73 1008.58 1008.46 1008.39 1008.38 1008.44 1008.58 1008.80 1009.11 1009.49 1009.94 1010.45 1010.99 1011.54 1012.08 1012.60 1013.08 1013.54 1013.95 1014.34 1014.72 1015.08 1015.44 1015.81 1016.19 1016.56 1016.93 1017.29
1011.42 1011.49 1011.54 1011.57 1011.54 1011.47 1011.35 1011.17 1010.95 1010.71 1010.45 1010.19 1009.93 1009.70 1009.48 1009.29 1009.13 1009.00 1008.90 1008.84 1008.84 1008.89 1009.00 1009.17 1009.42 1009.74 1010.12 1010.55 1011.01 1011.49 1011.97 1012.44 1012.89 1013.30 1013.69 1014.05 1014.40 1014.74 1015.07 1015.41 1015.76 1016.11 1016.46 1016.80
1011.13 1011.24 1011.35 1011.44 1011.48 1011.46 1011.39 1011.25 1011.07 1010.85 1010.61 1010.37 1010.13 1009.92 1009.74 1009.59 1009.48 1009.40 1009.34 1009.33 1009.34 1009.40 1009.49 1009.64 1009.83 1010.08 1010.38 1010.73 1011.11 1011.52 1011.94 1012.35 1012.75 1013.13 1013.49 1013.82 1014.14 1014.45 1014.76 1015.06 1015.38 1015.70 1016.01 1016.32
1011.14 1011.26 1011.38 1011.47 1011.51 1011.50 1011.42 1011.28 1011.09 1010.86 1010.63 1010.40 1010.19 1010.02 1009.89 1009.80 1009.76 1009.75 1009.77 1009.80 1009.86 1009.94 1010.03 1010.15 1010.30 1010.49 1010.72 1010.99 1011.29 1011.62 1011.96 1012.32 1012.67 1013.01 1013.34 1013.65 1013.94 1014.22 1014.50 1014.77 1015.05 1015.33 1015.61 1015.89
1011.38 1011.47 1011.55 1011.59 1011.58 1011.51 1011.38 1011.19 1010.97 1010.73 1010.49 1010.27 1010.10 1009.98 1009.92 1009.92 1009.96 1010.04 1010.14 1010.26 1010.37 1010.48 1010.59 1010.69 1010.81 1010.94 1011.10 1011.29 1011.52 1011.78 1012.06 1012.36 1012.66 1012.97 1013.26 1013.55 1013.82 1014.07 1014.32 1014.57 1014.81 1015.05 1015.30 1015.53
1011.74 1011.76 1011.75 1011.70 1011.60 1011.44 1011.24 1010.99 1010.72 1010.45 1010.21 1010.02 1009.89 1009.84 1009.87 1009.96 1010.10 1010.28 1010.48 1010.68 1010.86 1011.01 1011.14 1011.24 1011.34 1011.43 1011.54 1011.67 1011.83 1012.02 1012.24 1012.49 1012.75 1013.02 1013.29 1013.55 1013.80 1014.03 1014.26 1014.47 1014.68 1014.89 1015.10 1015.30
1012.09 1012.02 1011.91 1011.75 1011.54 1011.28 1010.99 1010.68 1010.37 1010.09 1009.86 1009.71 1009.64 1009.67 1009.78 1009.98 1010.23 1010.51 1010.80 1011.08 1011.33 1011.53 1011.69 1011.81 1011.90 1011.97 1012.04 1012.12 1012.23 1012.38 1012.55 1012.76 1012.98 1013.22 1013.46 1013.70 1013.92 1014.14 1014.34 1014.53 1014.71 1014.89 1015.07 1015.23
1012.37 1012.20 1011.98 1011.71 1011.40 1011.05 1010.69 1010.34 1010.01 1009.74 1009.54 1009.44 1009.44 1009.55 1009.76 1010.05 1010.39 1010.77 1011.15 1011.50 1011.82 1012.07 1012.27 1012.41 1012.51 1012.58 1012.63 1012.70 1012.78 1012.89 1013.03 1013.20 1013.39 1013.60 1013.81 1014.02 1014.23 1014.42 1014.60 1014.76 1014.92 1015.07 1015.22 1015.36
1012.56 1012.30 1011.99 1011.63 1011.25 1010.84 1010.45 1010.08 1009.77 1009.53 1009.38 1009.34 1009.41 1009.60 1009.89 1010.25 1010.68 1011.13 1011.58 1011.99 1012.36 1012.67 1012.91 1013.08 1013.21 1013.29 1013.36 1013.41 1013.49 1013.58 1013.70 1013.84 1014.00 1014.18 1014.37 1014.55 1014.73 1014.89 1015.04 1015.18 1015.31 1015.44 1015.55 1015.66
1012.73 1012.40 1012.02 1011.61 1011.19 1010.77 1010.38 1010.04 1009.77 1009.58 1009.49 1009.52 1009.66 1009.91 1010.26 1010.68 1011.15 1011.65 1012.14 1012.60 1013.02 1013.36 1013.64 1013.86 1014.02 1014.13 1014.22 1014.29 1014.36 1014.45 1014.55 1014.67 1014.81 1014.96 1015.11 1015.26 1015.41 1015.54 1015.66 1015.77 1015.87 1015.96 1016.04 1016.12
1012.95 1012.58 1012.17 1011.75 1011.34 1010.95 1010.60 1010.32 1010.11 1009.99 1009.97 1010.05 1010.25 1010.54 1010.92 1011.37 1011.86 1012.37 1012.88 1013.36 1013.80 1014.17 1014.49 1014.74 1014.94 1015.09 1015.20 1015.30 1015.38 1015.47 1015.56 1015.66 1015.77 1015.88 1015.99 1016.10 1016.21 1016.30 1016.38 1016.46 1016.52 1016.57 1016.62 1016.67
1013.30 1012.92 1012.53 1012.14 1011.78 1011.45 1011.17 1010.97 1010.83 1010.79 1010.83 1010.96 1011.19 1011.50 1011.89 1012.32 1012.80 1013.30 1013.80 1014.27 1014.71 1015.10 1015.44 1015.72 1015.95 1016.13 1016.28 1016.39 1016.48 1016.56 1016.64 1016.71 1016.79 1016.86 1016.93 1017.00 1017.06 1017.11 1017.15 1017.18 1017.21 1017.22 1017.23 1017.23
1013.82 1013.48 1013.13 1012.81 1012.52 1012.28 1012.09 1011.97 1011.92 1011.94 1012.03 1012.20 1012.44 1012.74 1013.10 1013.50 1013.94 1014.40 1014.86 1015.31 1015.73 1016.12 1016.46 1016.76 1017.01 1017.21 1017.37 1017.49 1017.58 1017.65 1017.71 1017.75 1017.78 1017.81 1017.84 1017.85 1017.87 1017.87 1017.88 1017.87 1017.85 1017.83 1017.80 1017.76
1014.50 1014.22 1013.95 1013.71 1013.52 1013.37 1013.28 1013.25 1013.27 1013.35 1013.48 1013.66 1013.89 1014.16 1014.48 1014.83 1015.21 1015.60 1016.01 1016.41 1016.80 1017.17 1017.50 1017.79 1018.04 1018.25 1018.41 1018.53 1018.60 1018.65 1018.67 1018.68 1018.66 1018.64 1018.62 1018.59 1018.56 1018.53 1018.49 1018.45 1018.40 1018.34 1018.27 1018.18
1015.30 1015.09 1014.90 1014.76 1014.67 1014.62 1014.62 1014.66 1014.75 1014.87 1015.02 1015.20 1015.40 1015.64 1015.90 1016.19 1016.51 1016.83 1017.18 1017.53 1017.87 1018.20 1018.51 1018.78 1019.01 1019.20 1019.34 1019.43 1019.48 1019.49 1019.47 1019.42 1019.36 1019.30 1019.22 1019.15 1019.09 1019.02 1018.96 1018.89 1018.81 1018.72 1018.61 1018.48
1016.12 1015.99 1015.90 1015.85 1015.84 1015.88 1015.96 1016.07 1016.20 1016.34 1016.51 1016.68 1016.86 1017.06 1017.27 1017.50 1017.75 1018.02 1018.30 1018.59 1018.89 1019.17 1019.43 1019.67 1019.86 1020.01 1020.11 1020.16 1020.17 1020.13 1020.06 1019.97 1019.86 1019.74 1019.63 1019.53 1019.43 1019.34 1019.25 1019.16 1019.06 1018.95 1018.81 1018.66
1016.90 1016.85 1016.83 1016.86 1016.93 1017.04 1017.18 1017.33 1017.50 1017.66 1017.83 1018.00 1018.16 1018.33 1018.50 1018.69 1018.89 1019.10 1019.33 1019.57 1019.81 1020.04 1020.26 1020.44 1020.59 1020.69 1020.74 1020.73 1020.68 1020.59 1020.47 1020.33 1020.17 1020.02 1019.87 1019.74 1019.62 1019.51 1019.40 1019.30 1019.18 1019.05 1018.90 1018.72
Thickness
5701 5702 5701 5699 5697 5697 5697 5701 5699 5707 5711 5722 5731 5733 5736 5738 5738 5738 5738 5739 5738 5737 5737 5736 5735 5734 5733 5731 5729 5727 5724 5722 5721 5720 5718 5715 5712 5710 5708 5706 5704 5703 5701 5699
5695 5698 5698 5695 5699 5699 5698 5701 5703 5707 5712 5731 5734 5737 5736 5736 5736 5734 5736 5737 5738 5738 5738 5737 5736 5735 5733 5731 5729 5727 5724 5722 5720 5718 5715 5712 5710 5708 5705 5703 5701 5699 5697 5696
5691 5695 5693 5690 5703 5702 5703 5708 5707 5706 5718 5729 5728 5729 5731 5733 5734 5735 5736 5737 5738 5739 5739 5739 5739 5738 5734 5732 5730 5726 5723 5721 5718 5716 5712 5710 5708 5705 5701 5699 5697 5695 5693 5692
5691 5688 5675 5702 5717 5713 5709 5712 5718 5720 5725 5727 5728 5730 5733 5735 5734 5734 5736 5736 5737 5738 5739 5739 5739 5737 5735 5732 5729 5726 5723 5720 5717 5713 5710 5707 5704 5701 5699 5698 5694 5691 5690 5688
5687 5681 5686 5702 5710 5709 5705 5709 5722 5722 5724 5726 5729 5729 5731 5735 5735 5735 5736 5737 5737 5739 5739 5739 5737 5736 5733 5729 5727 5724 5721 5719 5716 5712 5708 5704 5701 5699 5697 5695 5692 5689 5687 5685
5684 5677 5677 5700 5713 5715 5709 5704 5724 5726 5724 5725 5726 5721 5726 5732 5733 5733 5734 5734 5735 5735 5735 5734 5733 5733 5729 5726 5724 5721 5720 5718 5715 5712 5707 5703 5700 5698 5694 5691 5688 5686 5683 5681
5681 5679 5691 5709 5711 5709 5693 5704 5723 5726 5726 5725 5724 5727 5729 5731 5730 5729 5729 5729 5730 5730 5729 5729 5730 5728 5725 5724 5722 5720 5718 5715 5712 5709 5705 5702 5698 5694 5691 5688 5685 5682 5680 5677
5682 5677 5686 5708 5706 5704 5710 5722 5723 5723 5725 5724 5724 5724 5725 5725 5724 5724 5724 5723 5724 5725 5724 5724 5725 5723 5721 5719 5718 5716 5714 5711 5708 5705 5702 5698 5693 5690 5688 5684 5680 5678 5676 5674
5694 5694 5705 5708 5710 5714 5717 5717 5719 5721 5721 5721 5719 5719 5719 5720 5719 5719 5719 5719 5719 5719 5718 5718 5718 5718 5715 5714 5713 5711 5708 5705 5703 5701 5697 5694 5690 5686 5683 5680 5678 5676 5674 5671
5691 5696 5701 5704 5708 5710 5713 5714 5716 5717 5717 5716 5715 5715 5714 5714 5714 5714 5714 5714 5715 5713 5712 5712 5712 5711 5710 5709 5707 5705 5703 5700 5698 5696 5692 5690 5686 5684 5680 5678 5675 5673 5671 5668
5687 5694 5695 5698 5702 5705 5708 5710 5710 5711 5712 5711 5711 5710 5710 5709 5709 5709 5708 5709 5709 5708 5707 5706 5706 5704 5704 5703 5702 5700 5698 5695 5693 5690 5688 5684 5681 5679 5677 5675 5674 5670 5668 5666
5687 5696 5696 5696 5701 5702 5702 5702 5704 5704 5704 5705 5705 5704 5704 5703 5703 5702 5702 5703 5702 5701 5700 5700 5700 5698 5697 5697 5696 5694 5692 5689 5686 5683 5680 5678 5675 5672 5667 5666 5663 5661 5659 5658
5691 5694 5695 5694 5695 5697 5697 5698 5699 5698 5698 5697 5698 5698 5697 5696 5695 5695 5695 5696 5695 5695 5694 5694 5693 5691 5690 5689 5688 5687 5686 5683 5679 5677 5674 5672 5670 5667 5664 5659 5654 5652 5650 5648
5682 5683 5682 5686 5687 5690 5691 5691 5691 5691 5690 5690 5690 5690 5689 5688 5687 5686 5687 5688 5688 5688 5687 5686 5684 5682 5682 5681 5680 5679 5677 5674 5671 5669 5667 5666 5663 5661 5659 5657 5653 5651 5646 5641
5673 5676 5678 5679 5680 5681 5682 5683 5682 5682 5682 5681 5682 5681 5681 5680 5679 5678 5678 5679 5679 5678 5677 5676 5674 5673 5673 5672 5671 5669 5667 5665 5663 5661 5659 5657 5655 5653 5651 5649 5647 5644 5642 5637
5665 5667 5668 5669 5670 5672 5673 5674 5674 5674 5674 5674 5673 5673 5673 5672 5671 5669 5669 5670 5669 5668 5667 5666 5664 5663 5663 5662 5660 5659 5656 5652 5651 5651 5650 5648 5646 5644 5642 5639 5637 5635 5633 5630
5657 5658 5659 5660 5662 5664 5665 5667 5668 5668 5667 5667 5666 5665 5664 5662 5661 5660 5659 5659 5659 5657 5656 5655 5653 5653 5652 5652 5651 5649 5647 5644 5640 5641 5640 5638 5636 5634 5632 5629 5627 5625 5623 5619
5655 5657 5659 5659 5659 5658 5658 5659 5659 5659 5659 5658 5657 5656 5654 5653 5652 5650 5649 5648 5647 5645 5644 5643 5643 5642 5642 5641 5640 5639 5637 5635 5632 5631 5629 5627 5625 5623 5622 5619 5617 5614 5612 5609
5646 5648 5650 5650 5651 5651 5651 5650 5650 5650 5649 5648 5647 5646 5644 5643 5641 5639 5639 5638 5636 5634 5631 5631 5629 5631 5630 5629 5627 5627 5625 5624 5621 5619 5617 5613 5613 5612 5610 5608 5605 5603 5601 5598
5636 5638 5640 5640 5641 5641 5640 5640 5640 5638 5638 5637 5636 5634 5632 5630 5628 5628 5627 5625 5622 5621 5619 5618 5618 5618 5617 5616 5614 5615 5613 5611 5609 5608 5606 5604 5602 5600 5598 5595 5593 5591 5589 5586
5626 5628 5629 5630 5630 5630 5631 5631 5630 5628 5627 5626 5625 5623 5620 5617 5616 5615 5614 5611 5608 5606 5606 5604 5606 5604 5604 5602 5600 5601 5600 5598 5597 5595 5593 5591 5589 5587 5585 5583 5580 5578 5576 5573
5616 5618 5619 5620 5620 5620 5620 5621 5619 5617 5615 5614 5612 5610 5607 5605 5603 5601 5599 5597 5594 5591 5593 5593 5592 5589 5588 5587 5588 5588 5586 5585 5583 5581 5579 5577 5575 5573 5571 5569 5566 5564 5561 5558
5606 5607 5608 5609 5609 5609 5609 5608 5607 5606 5604 5602 5600 5598 5596 5593 5591 5590 5586 5583 5581 5579 5579 5578 5575 5573 5573 5575 5574 5573 5572 5570 5568 5566 5564 5562 5560 5558 5556 5553 5551 5548 5545 5543
5593 5595 5595 5597 5597 5597 5596 5595 5594 5593 5590 5588 5586 5585 5583 5581 5578 5576 5573 5569 5567 5566 5565 5562 5560 5559 5559 5560 5559 5558 5557 5555 5553 5551 5548 5546 5544 5542 5539 5537 5534 5532 5529 5526
5581 5582 5583 5584 5585 5584 5583 5581 5580 5578 5576 5575 5572 5571 5570 5568 5566 5563 5560 5557 5554 5553 5552 5549 5547 5546 5546 5546 5544 5542 5541 5538 5536 5534 5532 5530 5527 5525 5523 5520 5518 5515 5512 5510
5568 5569 5570 5571 5571 5570 5569 5569 5567 5566 5564 5562 5560 5558 5556 5554 5551 5549 5547 5544 5542 5540 5539 5537 5535 5533 5532 5530 5528 5526 5524 5522 5520 5518 5515 5513 5511 5508 5506 5503 5500 5497 5495 5492
5553 5554 5554 5555 5555 5556 5556 5555 5554 5553 5552 5551 5548 5545 5542 5540 5538 5536 5534 5532 5529 5527 5525 5523 5521 5519 5517 5515 5513 5511 5509 5506 5504 5501 5499 5496 5493 5491 5488 5485 5482 5479 5477 5474